Location: Crescent
(42.8242°N, 73.7329°W)
Time: 17:30:27
(UTC+00:00)

Vanguard 1 Rocket - Pass Details

Date: 22 February 2026
Orbit: 653 x 4214 km, 34.3° (Epoch: 8 March)

Event Time Altitude Azimuth Distance (km) Brightness Sun altitude
Rises 18:49:59 0° 254° (WSW) 4,164 11.4 32.3°
Reaches altitude 10° 18:52:16 10° 250° (WSW) 3,486 11.2 32.1°
Maximum altitude 19:01:20 58° 174° (S) 2,402 10.5 31.2°
Drops below altitude 10° 19:19:07 10° 102° (ESE) 6,461 11.6 29.4°
Sets 19:25:15 0° 99° (E) 7,913 11.9 28.7°
